Hourly Weather Cerritos

Today, 15 June, Tuesday

Time Temperature Precipitation Wind Pressure Humidity
00:00 +21°C° 0 mm 2 mps 666 mmHg 84%
01:00 +22°C° 0 mm 1 mps 666 mmHg 86%
02:00 +22°C° 0 mm 1 mps 665 mmHg 87%
03:00 +19°C° 0 mm 0 mps 665 mmHg 89%
04:00 +18°C° 0 mm 0 mps 665 mmHg 91%
05:00 +18°C° 0 mm 0 mps 665 mmHg 92%
06:00 +20°C° 0 mm 0 mps 666 mmHg 82%
07:00 +21°C° 0 mm 0 mps 666 mmHg 72%
08:00 +25°C° 0 mm 1 mps 667 mmHg 62%
09:00 +27°C° 0 mm 2 mps 667 mmHg 53%
10:00 +29°C° 0 mm 3 mps 667 mmHg 44%
11:00 +30°C° 0 mm 4 mps 667 mmHg 34%
12:00 +32°C° 0 mm 5 mps 667 mmHg 31%
13:00 +33°C° 0 mm 6 mps 667 mmHg 28%
14:00 +34°C° 0 mm 7 mps 666 mmHg 25%
15:00 +33°C° 0 mm 7 mps 666 mmHg 28%
16:00 +32°C° 0 mm 7 mps 666 mmHg 31%
17:00 +30°C° 0 mm 7 mps 666 mmHg 34%
18:00 +28°C° 0 mm 6 mps 666 mmHg 44%
19:00 +26°C° 0 mm 6 mps 666 mmHg 54%
20:00 +23°C° 0 mm 5 mps 666 mmHg 64%
21:00 +22°C° 0.3 mm 4 mps 666 mmHg 71%
22:00 +21°C° 0.3 mm 3 mps 666 mmHg 78%
23:00 +21°C° 0.3 mm 2 mps 666 mmHg 85%

Tomorrow, 16 June, Wednesday

Time Temperature Precipitation Wind Pressure Humidity
00:00 +20°C° 0.1 mm 2 mps 666 mmHg 87%
01:00 +21°C° 0.1 mm 1 mps 666 mmHg 89%
02:00 +20°C° 0.1 mm 1 mps 665 mmHg 91%
03:00 +20°C° 0 mm 1 mps 665 mmHg 91%
04:00 +18°C° 0 mm 0 mps 665 mmHg 91%
05:00 +17°C° 0 mm 0 mps 665 mmHg 91%
06:00 +19°C° 0.1 mm 0 mps 666 mmHg 82%
07:00 +23°C° 0.1 mm 1 mps 666 mmHg 72%
08:00 +25°C° 0.1 mm 1 mps 667 mmHg 63%
09:00 +26°C° 0.2 mm 2 mps 667 mmHg 56%
10:00 +28°C° 0.2 mm 3 mps 667 mmHg 49%
11:00 +29°C° 0.2 mm 4 mps 667 mmHg 42%
12:00 +30°C° 0 mm 5 mps 667 mmHg 38%
13:00 +32°C° 0 mm 6 mps 666 mmHg 33%
14:00 +33°C° 0 mm 7 mps 666 mmHg 29%
15:00 +32°C° 0 mm 7 mps 666 mmHg 32%
16:00 +31°C° 0 mm 8 mps 665 mmHg 35%
17:00 +29°C° 0 mm 9 mps 665 mmHg 37%
18:00 +27°C° 0 mm 7 mps 665 mmHg 48%
19:00 +25°C° 0 mm 5 mps 666 mmHg 59%
20:00 +22°C° 0 mm 4 mps 666 mmHg 70%
21:00 +22°C° 0.2 mm 3 mps 666 mmHg 74%
22:00 +21°C° 0.2 mm 2 mps 666 mmHg 79%
23:00 +20°C° 0.2 mm 2 mps 666 mmHg 83%

Day after tomorrow, 17 June, Thursday

Time Temperature Precipitation Wind Pressure Humidity
00:00 +21°C° 0.3 mm 1 mps 666 mmHg 85%
01:00 +20°C° 0.3 mm 1 mps 665 mmHg 86%
02:00 +20°C° 0.3 mm 1 mps 665 mmHg 87%
03:00 +20°C° 0 mm 1 mps 665 mmHg 88%
04:00 +17°C° 0 mm 0 mps 665 mmHg 89%
05:00 +17°C° 0 mm 0 mps 665 mmHg 91%
06:00 +21°C° 0 mm 1 mps 665 mmHg 82%
07:00 +22°C° 0 mm 1 mps 666 mmHg 74%
08:00 +24°C° 0 mm 1 mps 666 mmHg 65%
09:00 +26°C° 0 mm 2 mps 666 mmHg 57%
10:00 +28°C° 0 mm 3 mps 666 mmHg 49%
11:00 +29°C° 0 mm 4 mps 666 mmHg 41%
12:00 +30°C° 0 mm 5 mps 666 mmHg 39%
13:00 +30°C° 0 mm 5 mps 665 mmHg 37%
14:00 +30°C° 0 mm 6 mps 665 mmHg 35%
15:00 +29°C° 0 mm 7 mps 665 mmHg 39%
16:00 +28°C° 0 mm 7 mps 665 mmHg 44%
17:00 +27°C° 0 mm 8 mps 664 mmHg 48%
18:00 +26°C° 0.4 mm 6 mps 665 mmHg 58%
19:00 +23°C° 0.4 mm 5 mps 665 mmHg 69%
20:00 +21°C° 0.4 mm 3 mps 665 mmHg 80%
21:00 +20°C° 0 mm 3 mps 665 mmHg 82%
22:00 +20°C° 0 mm 2 mps 665 mmHg 85%
23:00 +19°C° 0 mm 2 mps 665 mmHg 87%

18 June, Friday

Time Temperature Precipitation Wind Pressure Humidity
00:00 +19°C° 0 mm 2 mps 665 mmHg 88%
01:00 +20°C° 0 mm 1 mps 665 mmHg 89%
02:00 +19°C° 0 mm 1 mps 664 mmHg 90%
03:00 +19°C° 0 mm 1 mps 664 mmHg 90%
04:00 +19°C° 0 mm 1 mps 664 mmHg 90%
05:00 +19°C° 0 mm 1 mps 664 mmHg 90%
06:00 +21°C° 0 mm 1 mps 665 mmHg 80%
07:00 +22°C° 0 mm 1 mps 665 mmHg 71%
08:00 +24°C° 0 mm 1 mps 666 mmHg 61%
09:00 +26°C° 0 mm 1 mps 666 mmHg 55%
10:00 +28°C° 0 mm 2 mps 666 mmHg 48%
11:00 +29°C° 0 mm 3 mps 666 mmHg 42%
12:00 +30°C° 0 mm 3 mps 665 mmHg 40%
13:00 +30°C° 0 mm 4 mps 665 mmHg 38%
14:00 +32°C° 0 mm 4 mps 664 mmHg 36%
15:00 +30°C° 0 mm 5 mps 664 mmHg 38%
16:00 +29°C° 0 mm 6 mps 664 mmHg 40%
17:00 +29°C° 0 mm 7 mps 664 mmHg 42%
18:00 +27°C° 0 mm 6 mps 664 mmHg 47%
19:00 +25°C° 0 mm 4 mps 664 mmHg 52%
20:00 +24°C° 0 mm 3 mps 664 mmHg 58%
21:00 +23°C° 0 mm 2 mps 664 mmHg 65%
22:00 +21°C° 0 mm 2 mps 664 mmHg 72%
23:00 +21°C° 0 mm 1 mps 665 mmHg 80%

19 June, Saturday

Time Temperature Precipitation Wind Pressure Humidity
00:00 +21°C° 0 mm 1 mps 664 mmHg 82%
01:00 +19°C° 0 mm 0 mps 664 mmHg 85%
02:00 +18°C° 0 mm 0 mps 664 mmHg 88%
03:00 +20°C° 0 mm 1 mps 664 mmHg 88%
04:00 +20°C° 0 mm 1 mps 664 mmHg 89%
05:00 +20°C° 0 mm 1 mps 664 mmHg 89%
06:00 +22°C° 0 mm 1 mps 665 mmHg 79%
07:00 +24°C° 0 mm 1 mps 665 mmHg 69%
08:00 +24°C° 0 mm 0 mps 666 mmHg 59%
09:00 +28°C° 0 mm 1 mps 666 mmHg 51%
10:00 +30°C° 0 mm 2 mps 666 mmHg 43%
11:00 +31°C° 0 mm 2 mps 665 mmHg 35%
12:00 +33°C° 0 mm 3 mps 665 mmHg 33%
13:00 +34°C° 0 mm 4 mps 665 mmHg 30%
14:00 +35°C° 0 mm 4 mps 664 mmHg 28%
15:00 +34°C° 0 mm 5 mps 664 mmHg 32%
16:00 +33°C° 0 mm 6 mps 664 mmHg 36%
17:00 +32°C° 0 mm 8 mps 664 mmHg 40%
18:00 +29°C° 0 mm 6 mps 664 mmHg 48%
19:00 +27°C° 0 mm 5 mps 664 mmHg 56%
20:00 +25°C° 0 mm 3 mps 665 mmHg 64%
21:00 +25°C° 0 mm 3 mps 665 mmHg 67%
22:00 +24°C° 0 mm 2 mps 665 mmHg 70%
23:00 +23°C° 0 mm 2 mps 665 mmHg 73%

20 June, Sunday

Time Temperature Precipitation Wind Pressure Humidity
00:00 +23°C° 0 mm 1 mps 665 mmHg 74%
01:00 +23°C° 0 mm 1 mps 665 mmHg 76%
02:00 +22°C° 0 mm 1 mps 664 mmHg 77%
03:00 +22°C° 0 mm 1 mps 664 mmHg 77%
04:00 +22°C° 0 mm 1 mps 664 mmHg 77%
05:00 +22°C° 0 mm 1 mps 664 mmHg 77%
06:00 +24°C° 0 mm 1 mps 665 mmHg 70%
07:00 +23°C° 0 mm 0 mps 665 mmHg 63%
08:00 +25°C° 0 mm 0 mps 666 mmHg 56%
09:00 +26°C° 0 mm 0 mps 666 mmHg 50%
10:00 +30°C° 0 mm 1 mps 666 mmHg 45%
11:00 +31°C° 0 mm 1 mps 666 mmHg 40%
12:00 +32°C° 0 mm 2 mps 665 mmHg 38%
13:00 +34°C° 0 mm 2 mps 665 mmHg 35%
14:00 +35°C° 0 mm 3 mps 664 mmHg 33%
15:00 +34°C° 0 mm 3 mps 664 mmHg 34%
16:00 +34°C° 0 mm 3 mps 664 mmHg 34%
17:00 +34°C° 0 mm 3 mps 664 mmHg 35%
18:00 +30°C° 0.3 mm 3 mps 664 mmHg 47%
19:00 +28°C° 0.3 mm 2 mps 664 mmHg 59%
20:00 +26°C° 0.3 mm 2 mps 664 mmHg 70%
21:00 +25°C° 0.6 mm 2 mps 664 mmHg 75%
22:00 +25°C° 0.6 mm 2 mps 664 mmHg 80%
23:00 +24°C° 0.6 mm 2 mps 664 mmHg 84%
Show more

We Need Your Consent

Meteoprog and our Service Providers may store and access personal data such as cookies, device identifiers or other similar technologies on your device and process such data to personalise content and ads, as well as provide social media features and to analyse the traffic.

  • Store and/or access information on your device

    Cookies, device identifiers or other information can be stored or accessed on your device for the purposes indicated above.

  • Personalised ads and content, ad and content measurement, audience insights, and products development

    Ads and content can be personalised based on a profile. More data can be added to better personalise ads and content. Ad and content performance can be measured. Insights about the audience who saw the ads and content can be derived. Such data can be used to develop or improve user’s experience, systems and software.

By clicking ‘I Agree’ you will allow the use of indicated cookies, device identifiers, web beacons or other similar technologies. Your settings can be changed in the browser on your device.

For certain purposes, legitimate interests may be relied on, rather than consent. You can read more about this in our Privacy and Cookie Policy.